Location: Unspecified
(48.8656°N, 0.0000°E)
Time: 20:27:11
(UTC+00:00)

Transit 2A Rocket - Pass Details

Date: 21 June 2019
Orbit: 588 x 915 km, 66.7° (Epoch: 21 July)

Event Time Altitude Azimuth Distance (km) Brightness Sun altitude
Rises 09:29:08 0° 179° (S) 3,532 8.7 50.7°
Reaches altitude 10° 09:31:56 10° 169° (S) 2,598 8.2 51.1°
Maximum altitude 09:37:07 30° 111° (ESE) 1,567 8.2 51.9°
Drops below altitude 10° 09:42:12 10° 53° (NE) 2,547 8.0 52.6°
Sets 09:44:55 0° 43° (NE) 3,452 8.5 53.0°
